Humidity-temperature Sensor

Selected Measurement Type: Air Temperature

 
Air Temperature [°C]     6 entries per hour
Showing data from 2/27/2017 (00:00:00 Z) to 2/20/2017 (00:01:00 Z)
Previous Next [ Day | 3-Days | 7-Days ]
First Last
Prev [ Day | 3-Days | 7-Days ] Next
First Last

Start Time:     :
End Time:     :     
Time (in GMT) :00 :50 :40 :30 :20 :10
Previous Next [ Day | 3-Days | 7-Days ]
First Last
Prev [ Day | 3-Days | 7-Days ] Next
First Last


123 => good data
MM => data is determined as missing
-- => data not received/configured
Back to Top Back to Top
2/27/2017 00:00 to 23:10 25.74 25.59 25.63 25.76 25.57 25.56
2/26/2017 23:00 to 22:10 25.60 25.51 25.56 25.65 25.50 25.58
2/26/2017 22:00 to 21:10 25.48 25.76 26.08 27.05 26.82 26.68
2/26/2017 21:00 to 20:10 26.88 26.55 26.54 26.54 26.49 26.66
2/26/2017 20:00 to 19:10 26.35 26.31 26.35 26.29 26.26 26.26
2/26/2017 19:00 to 18:10 26.22 26.25 26.29 26.17 26.13 26.19
2/26/2017 18:00 to 17:10 26.17 26.03 26.06 26.14 26.14 26.10
2/26/2017 17:00 to 16:10 26.22 26.28 26.38 26.38 26.19 26.41
2/26/2017 16:00 to 15:10 26.08 26.08 26.37 26.11 26.21 25.88
2/26/2017 15:00 to 14:10 26.04 25.91 25.74 25.77 25.79 25.74
2/26/2017 14:00 to 13:10 25.79 25.81 25.79 25.73 25.77 25.80
2/26/2017 13:00 to 12:10 25.85 25.73 25.91 25.91 26.03 25.99
2/26/2017 12:00 to 11:10 25.86 25.75 25.95 25.94 25.89 25.94
2/26/2017 11:00 to 10:10 25.90 25.92 25.97 26.00 25.91 25.92
2/26/2017 10:00 to 9:10 25.92 26.00 25.92 26.04 25.96 26.16
2/26/2017 09:00 to 8:10 26.05 26.07 26.10 26.14 26.12 26.16
2/26/2017 08:00 to 7:10 26.24 26.26 26.17 26.14 26.19 26.22
2/26/2017 07:00 to 6:10 26.23 26.35 26.29 26.40 26.56 26.55
2/26/2017 06:00 to 5:10 26.50 26.53 26.51 26.47 26.54 26.37
2/26/2017 05:00 to 4:10 26.42 26.32 26.29 26.23 26.22 26.29
2/26/2017 04:00 to 3:10 26.37 26.22 26.48 26.53 26.52 26.48
2/26/2017 03:00 to 2:10 26.34 26.01 25.95 25.83 25.81 26.74
2/26/2017 02:00 to 1:10 26.57 26.57 26.64 26.66 26.68 26.70
2/26/2017 01:00 to 0:10 26.64 26.63 26.70 26.82 26.71 26.64
2/26/2017 00:00 to 23:10 26.64 26.61 26.71 26.73 26.68 26.61
2/25/2017 23:00 to 22:10 26.57 26.55 26.49 26.46 26.42 26.46
2/25/2017 22:00 to 21:10 26.46 26.51 26.46 26.37 26.43 26.53
2/25/2017 21:00 to 20:10 26.36 26.42 26.39 26.42 26.54 26.34
2/25/2017 20:00 to 19:10 26.44 26.41 26.41 26.55 26.49 26.45
2/25/2017 19:00 to 18:10 26.63 26.66 26.48 26.51 26.57 26.57
2/25/2017 18:00 to 17:10 26.53 26.57 26.56 26.60 26.61 26.54
2/25/2017 17:00 to 16:10 26.67 26.47 26.56 26.72 26.61 26.56
2/25/2017 16:00 to 15:10 26.71 26.65 26.40 26.30 26.38 26.02
2/25/2017 15:00 to 14:10 26.14 26.11 25.90 25.91 25.79 26.04
2/25/2017 14:00 to 13:10 26.17 26.07 26.03 26.05 25.97 25.83
2/25/2017 13:00 to 12:10 25.74 25.66 25.59 25.63 25.88 25.93
2/25/2017 12:00 to 11:10 26.12 26.21 26.09 26.15 26.17 26.16
2/25/2017 11:00 to 10:10 26.27 26.15 26.15 26.19 26.17 26.25
2/25/2017 10:00 to 9:10 -- -- -- -- -- --
2/25/2017 09:00 to 8:10 26.37 26.39 26.45 26.31 26.39 26.41
2/25/2017 08:00 to 7:10 26.42 26.48 26.25 26.27 26.32 26.14
2/25/2017 07:00 to 6:10 26.26 26.33 26.15 26.17 26.01 25.91
2/25/2017 06:00 to 5:10 25.88 25.72 25.51 25.40 25.48 25.37
2/25/2017 05:00 to 4:10 25.26 25.02 25.09 25.27 25.09 24.89
2/25/2017 04:00 to 3:10 24.87 24.75 25.17 25.30 24.97 25.07
2/25/2017 03:00 to 2:10 25.01 24.89 25.02 24.59 24.93 24.99
2/25/2017 02:00 to 1:10 25.25 25.13 25.54 25.86 26.26 26.31
2/25/2017 01:00 to 0:10 26.56 26.51 26.35 26.15 26.24 26.14
2/25/2017 00:00 to 23:10 25.83 25.74 25.71 26.58 26.61 26.67
2/24/2017 23:00 to 22:10 26.50 27.13 27.20 27.14 27.16 27.14
2/24/2017 22:00 to 21:10 27.04 27.00 27.12 26.99 27.00 27.04
2/24/2017 21:00 to 20:10 27.01 26.98 27.14 27.06 27.05 27.14
2/24/2017 20:00 to 19:10 27.11 27.09 27.06 27.07 27.09 27.06
2/24/2017 19:00 to 18:10 27.10 27.07 27.27 27.31 27.17 27.14
2/24/2017 18:00 to 17:10 26.99 27.25 27.21 27.19 27.04 27.11
2/24/2017 17:00 to 16:10 26.78 26.79 26.83 27.01 26.95 26.83
2/24/2017 16:00 to 15:10 26.42 26.28 26.52 26.53 26.43 26.34
2/24/2017 15:00 to 14:10 26.37 26.17 25.96 26.72 26.60 26.71
2/24/2017 14:00 to 13:10 26.84 26.71 26.66 26.66 26.68 26.67
2/24/2017 13:00 to 12:10 26.58 26.63 26.71 26.54 26.75 26.58
2/24/2017 12:00 to 11:10 26.14 25.89 26.72 26.66 26.71 26.75
2/24/2017 11:00 to 10:10 26.82 26.79 26.78 26.75 26.75 26.89
2/24/2017 10:00 to 9:10 26.83 26.85 26.96 26.92 26.92 26.94
2/24/2017 09:00 to 8:10 26.60 26.13 25.67 24.83 24.97 24.98
2/24/2017 08:00 to 7:10 25.22 24.76 25.38 25.31 25.07 25.41
2/24/2017 07:00 to 6:10 25.72 25.77 26.33 25.60 25.50 25.46
2/24/2017 06:00 to 5:10 25.24 25.14 24.86 26.04 25.90 25.86
2/24/2017 05:00 to 4:10 26.21 26.97 26.90 26.47 27.08 27.20
2/24/2017 04:00 to 3:10 27.26 27.04 27.12 27.15 27.03 27.16
2/24/2017 03:00 to 2:10 27.08 27.08 27.07 27.03 27.20 27.14
2/24/2017 02:00 to 1:10 27.09 27.03 26.86 26.14 26.01 25.78
2/24/2017 01:00 to 0:10 26.28 25.82 25.71 25.61 27.20 27.06
2/24/2017 00:00 to 23:10 27.29 27.32 27.28 27.29 27.17 27.35
2/23/2017 23:00 to 22:10 27.13 27.30 27.20 27.08 27.12 27.10
2/23/2017 22:00 to 21:10 27.13 27.11 27.20 27.15 27.12 27.05
2/23/2017 21:00 to 20:10 27.00 27.17 27.12 27.02 26.96 26.94
2/23/2017 20:00 to 19:10 26.83 26.90 26.97 26.98 26.90 27.00
2/23/2017 19:00 to 18:10 27.02 27.01 26.83 26.89 26.83 26.72
2/23/2017 18:00 to 17:10 26.78 27.27 27.17 27.25 27.11 27.23
2/23/2017 17:00 to 16:10 27.11 27.14 26.79 26.97 26.98 26.93
2/23/2017 16:00 to 15:10 27.05 27.10 27.20 26.69 26.90 26.86
2/23/2017 15:00 to 14:10 26.89 26.78 26.64 26.69 26.69 26.64
2/23/2017 14:00 to 13:10 26.68 26.65 26.60 26.70 26.61 26.68
2/23/2017 13:00 to 12:10 26.53 26.64 26.57 26.71 26.67 26.65
2/23/2017 12:00 to 11:10 26.70 26.77 26.71 26.59 26.78 26.72
2/23/2017 11:00 to 10:10 26.71 26.72 26.81 26.77 26.69 26.73
2/23/2017 10:00 to 9:10 26.77 26.52 26.60 26.71 26.68 26.84
2/23/2017 09:00 to 8:10 26.82 26.84 26.92 26.90 26.99 27.05
2/23/2017 08:00 to 7:10 26.88 26.89 26.99 27.06 27.03 27.06
2/23/2017 07:00 to 6:10 27.02 27.06 27.06 27.10 27.08 27.11
2/23/2017 06:00 to 5:10 27.13 27.17 27.23 27.14 27.20 27.23
2/23/2017 05:00 to 4:10 27.19 27.11 27.19 27.19 27.09 27.18
2/23/2017 04:00 to 3:10 27.20 27.10 27.06 27.05 27.00 27.03
2/23/2017 03:00 to 2:10 27.05 27.04 27.16 27.09 27.09 27.27
2/23/2017 02:00 to 1:10 27.26 27.14 27.34 27.29 27.24 27.15
2/23/2017 01:00 to 0:10 27.18 27.18 27.12 27.08 27.08 27.08
2/23/2017 00:00 to 23:10 27.15 27.09 27.08 27.03 27.12 27.09
2/22/2017 23:00 to 22:10 27.11 27.05 27.25 27.07 27.13 27.25
2/22/2017 22:00 to 21:10 27.13 27.31 27.21 27.24 27.18 27.25
2/22/2017 21:00 to 20:10 27.06 27.06 27.05 27.08 27.01 27.05
2/22/2017 20:00 to 19:10 26.94 27.05 27.01 27.00 27.06 27.06
2/22/2017 19:00 to 18:10 27.05 27.11 26.99 27.07 27.11 27.11
2/22/2017 18:00 to 17:10 27.19 27.14 27.09 27.12 27.07 27.06
2/22/2017 17:00 to 16:10 27.05 27.07 27.00 26.98 27.03 27.09
2/22/2017 16:00 to 15:10 27.02 27.06 27.09 26.99 26.89 26.90
2/22/2017 15:00 to 14:10 26.54 26.46 26.41 26.53 26.46 26.43
2/22/2017 14:00 to 13:10 26.49 26.46 26.43 26.41 26.31 26.37
2/22/2017 13:00 to 12:10 26.38 26.40 26.35 26.42 26.45 26.39
2/22/2017 12:00 to 11:10 26.48 26.40 26.38 26.42 26.38 26.30
2/22/2017 11:00 to 10:10 26.43 26.48 26.44 26.40 26.43 26.43
2/22/2017 10:00 to 9:10 -- -- -- -- -- --
2/22/2017 09:00 to 8:10 26.60 26.65 26.76 26.68 26.67 26.62
2/22/2017 08:00 to 7:10 26.89 26.67 26.72 26.67 26.76 26.73
2/22/2017 07:00 to 6:10 26.78 26.79 26.73 26.78 26.77 26.85
2/22/2017 06:00 to 5:10 26.82 26.85 26.87 26.87 26.95 26.83
2/22/2017 05:00 to 4:10 26.87 26.80 26.88 26.90 26.93 26.88
2/22/2017 04:00 to 3:10 26.92 26.89 26.91 27.02 26.95 26.82
2/22/2017 03:00 to 2:10 26.92 26.87 26.89 26.91 26.84 26.92
2/22/2017 02:00 to 1:10 27.13 27.13 27.24 27.20 27.27 27.09
2/22/2017 01:00 to 0:10 27.25 27.03 26.99 27.07 27.00 27.03
2/22/2017 00:00 to 23:10 27.01 26.98 27.03 27.00 27.11 26.96
2/21/2017 23:00 to 22:10 27.01 26.90 26.95 26.98 26.99 26.94
2/21/2017 22:00 to 21:10 27.02 27.00 26.75 26.92 26.86 26.93
2/21/2017 21:00 to 20:10 26.86 26.98 26.93 26.81 26.85 26.79
2/21/2017 20:00 to 19:10 26.79 26.80 26.87 26.93 26.81 26.91
2/21/2017 19:00 to 18:10 26.99 26.96 27.04 26.96 26.96 26.95
2/21/2017 18:00 to 17:10 26.99 26.96 26.88 27.02 27.04 26.95
2/21/2017 17:00 to 16:10 26.85 27.01 26.99 26.88 26.90 26.89
2/21/2017 16:00 to 15:10 26.97 26.95 26.82 26.74 26.76 26.53
2/21/2017 15:00 to 14:10 26.57 26.27 26.34 26.19 26.24 26.34
2/21/2017 14:00 to 13:10 26.35 26.30 26.23 26.27 26.30 26.12
2/21/2017 13:00 to 12:10 26.30 26.33 26.24 26.17 26.26 26.28
2/21/2017 12:00 to 11:10 26.28 26.23 26.19 26.26 26.27 26.25
2/21/2017 11:00 to 10:10 26.16 26.35 26.23 26.38 26.25 26.41
2/21/2017 10:00 to 9:10 26.31 26.43 26.36 26.39 26.34 26.41
2/21/2017 09:00 to 8:10 26.43 26.38 26.41 26.39 26.41 26.41
2/21/2017 08:00 to 7:10 26.49 26.55 26.51 26.55 26.60 26.61
2/21/2017 07:00 to 6:10 26.56 26.54 26.62 26.71 26.54 26.61
2/21/2017 06:00 to 5:10 26.59 26.56 26.58 26.61 26.58 26.68
2/21/2017 05:00 to 4:10 26.64 26.62 26.55 26.61 26.56 26.56
2/21/2017 04:00 to 3:10 26.55 26.59 26.57 26.59 26.77 26.54
2/21/2017 03:00 to 2:10 26.60 26.53 26.53 26.59 26.67 26.61
2/21/2017 02:00 to 1:10 26.56 26.66 26.70 26.72 26.70 26.70
2/21/2017 01:00 to 0:10 26.72 26.70 26.71 26.75 26.77 26.63
2/21/2017 00:00 to 23:10 26.87 26.81 26.49 26.71 26.78 26.75
2/20/2017 23:00 to 22:10 26.62 26.63 26.61 26.67 26.54 26.57
2/20/2017 22:00 to 21:10 26.70 26.62 26.50 26.46 26.56 26.44
2/20/2017 21:00 to 20:10 26.44 26.55 26.57 26.43 26.41 26.43
2/20/2017 20:00 to 19:10 26.48 26.36 26.44 26.36 26.50 26.35
2/20/2017 19:00 to 18:10 26.42 26.47 26.52 26.45 26.38 26.45
2/20/2017 18:00 to 17:10 26.46 26.47 26.45 26.30 26.56 26.48
2/20/2017 17:00 to 16:10 26.52 26.35 26.31 26.14 26.21 26.55
2/20/2017 16:00 to 15:10 26.70 26.45 26.48 26.25 26.03 26.02
2/20/2017 15:00 to 14:10 26.09 26.04 25.97 25.96 25.80 25.82
2/20/2017 14:00 to 13:10 25.78 25.88 25.85 25.76 25.77 25.89
2/20/2017 13:00 to 12:10 25.71 25.81 25.81 25.83 25.82 25.88
2/20/2017 12:00 to 11:10 25.82 25.76 25.88 25.90 25.76 25.88
2/20/2017 11:00 to 10:10 25.81 25.80 25.79 25.79 25.86 25.86
2/20/2017 10:00 to 9:10 25.83 25.98 25.90 25.89 25.82 25.86
2/20/2017 09:00 to 8:10 25.90 25.95 25.93 25.88 25.99 25.99
2/20/2017 08:00 to 7:10 25.96 26.04 26.05 25.98 26.12 26.09
2/20/2017 07:00 to 6:10 26.08 26.04 26.13 26.11 26.25 26.12
2/20/2017 06:00 to 5:10 26.19 26.20 26.17 26.20 26.13 26.16
2/20/2017 05:00 to 4:10 26.18 26.16 26.13 26.17 26.19 26.19
2/20/2017 04:00 to 3:10 26.09 26.19 26.20 26.10 26.10 26.14
2/20/2017 03:00 to 2:10 26.02 26.07 26.06 26.18 26.15 26.36
2/20/2017 02:00 to 1:10 26.33 26.30 26.36 26.27 26.44 26.37
2/20/2017 01:00 to 0:10 26.30 26.23 26.22 26.29 26.21 26.21